Aérodrome :
LOGIN :

S'inscrire | Disclaimer

   EN    FR    IT 

 










Légende :    VFR   VFR Marginal   IFR   IFR Intensif   IFR Très Intensif
Visi : 
Plafond : 
>= 8 km
>= 3000ft
5 à 8 km
1000 à 3000 ft
1500m à 5 km
500 à 1000 ft
800 à 1500m
200 à 500 ft
< 800m
< 200 ft
Symboles :   Orages  Brouillard  Fortes neiges  Fortes précipitations  Vent > 20 kt
SIGMETs :   Divers  Orages  Givrage  Turbulence  Onde Orograph.  Cendres Volcan.






- Altitude de l'aérodrome : 424 ft
- Code IATA : QGY


LHPR - Györ Per

DERNIER METAR :
  • 290615Z AUTO 28011KT CAVOK 11/09 Q1014 NOSIG

METARs EXPIRÉS :
  • 290545Z AUTO 28009KT 250V320 CAVOK 11/09 Q1014 NOSIG
  • 290515Z AUTO 28009KT 9999 BKN047 OVC086 11/09 Q1014 NOSIG
  • 290445Z AUTO 27009KT 9999 BKN046 OVC087 11/09 Q1014 NOSIG
  • 290415Z AUTO 26007KT 9999 SCT044 BKN068 OVC090 10/09 Q1014 NOSIG

TAF TAF LHPR
Valide du 29 à 06h jusqu'au 29 à 15h UTC


290515Z 2906/2915 30010KT CAVOK
TEMPO 2909/2915 SCT030 BKN060



MET'MAP, la Météo Aéronautique d'un coup d'oeil ! - Copyright ORBIFLY Décembre 2007 - Disclaimer

ORBIFLY MET'MAP TEAM :

Programmation & Développement : Alexandra Zaïnal
Sur une idée originale de : Baudouin d'Aumeries
Assistance à la programmation : Marc-Olivier Méhu
Soutien technique & logistique : Manuel Goepfert

Contact : metmap@orbifly.com




SOURCES & CREDITS :

   NOAA